This is the latest recevied weather packets stored in our database for station/object VA7IM-13. If no packets are shown the sender has not sent any weather packets the latest 1 day(s).
| Time | Temp. | Humidity | Pressure | Rain* | Wind** | Luminosity | Snow |
|---|---|---|---|---|---|---|---|
| 1836273904 | 14.44° C | - | - | 0 mm | 0 m/s | - | - |
| 1778049118 | 13.33° C | - | - | 0 mm | 0.45 m/s, 113° | - | - |
| 1778048818 | 13.33° C | - | - | 0 mm | 0.89 m/s, 113° | - | - |
| 1778048518 | 13.33° C | - | - | 0 mm | 0.89 m/s, 158° | - | - |
| 1778048219 | 13.33° C | - | - | 0 mm | 1.79 m/s, 90° | - | - |
| 1778047918 | 13.33° C | - | - | 0 mm | 0.45 m/s, 45° | - | - |
| 1778047619 | 13.89° C | - | - | 0 mm | 0.45 m/s, 113° | - | - |
| 1778047319 | 13.89° C | - | - | 0 mm | 0.45 m/s, 135° | - | - |
| 1778047018 | 13.89° C | - | - | 0 mm | 0.89 m/s, 68° | - | - |
| 1778046717 | 13.89° C | - | - | 0 mm | 0.45 m/s, 135° | - | - |
| 1778046417 | 13.89° C | - | - | 0 mm | 1.34 m/s, 158° | - | - |
| 1778046118 | 13.89° C | - | - | 0 mm | 0.89 m/s, 113° | - | - |
| 1778045818 | 13.89° C | - | - | 0 mm | 0.89 m/s, 90° | - | - |
| 1778045522 | 13.33° C | - | - | 0 mm | 0.45 m/s, 180° | - | - |
| 1778045218 | 13.33° C | - | - | 0 mm | 1.34 m/s, 90° | - | - |
| 1778044919 | 12.78° C | - | - | 0 mm | 0 m/s | - | - |
| 1778044617 | 13.33° C | - | - | 0 mm | 0.45 m/s, 68° | - | - |
| 1778044317 | 13.33° C | - | - | 0 mm | 0 m/s | - | - |
| 1778044018 | 13.33° C | - | - | 0 mm | 0 m/s | - | - |
| 1778043418 | 13.33° C | - | - | 0 mm | 0.45 m/s, 158° | - | - |
| 1778043117 | 13.33° C | - | - | 0 mm | 0 m/s | - | - |
| 1778042817 | 13.33° C | - | - | 0 mm | 0 m/s | - | - |
| 1778042518 | 13.89° C | - | - | 0 mm | 0 m/s | - | - |
| 1778042219 | 13.89° C | - | - | 0 mm | 0 m/s | - | - |
| 1778041918 | 13.89° C | - | - | 0 mm | 0 m/s | - | - |
* Rain since midnight (hover to see other rain measurements)
** Current wind speed in m/s (hover to see current wind gust speed)